Powrót do katalogu

STARLINK-30297

AktywnyŁącznośćVLEO
NORAD 57682·PAYLOAD·🇺🇸 United States

Wystrzelony Aug 22, 2023 z Vandenberg Space Force Base

Loading…

Następne Przeloty (najbliższe 24 godziny)

TLE

ŚwieżeSource: CelesTrak SupGP

Epoka: Sep 14, 2026, 21:11 UTC

1 57682C 23124V   26257.88312500  .00025047  00000+0  74039-3 0  2579
2 57682  53.1603  47.6186 0001193  81.1113 172.0943 15.34363066    13

Śledź STARLINK-30297 w czasie rzeczywistym z AllMySat

Download on the App Store